Time,TemperatureF,DewpointF,PressureIn,WindDirection,WindDirectionDegrees,WindSpeedMPH,WindSpeedGustMPH,Humidity,HourlyPrecipIn,Conditions,Clouds,dailyrainin,SoftwareType,DateUTC
2013-02-24 00:09:00,37.3,37.0,29.75,East,82,0.0,3.0,97,0.00,,,0.00,weatherlink.com 1.10,2013-02-24 05:09:00,
2013-02-24 00:24:00,37.2,37.0,29.75,North,355,2.0,4.0,97,0.00,,,0.00,weatherlink.com 1.10,2013-02-24 05:24:00,
2013-02-24 00:39:00,37.2,37.0,29.75,North,355,3.0,4.0,97,0.00,,,0.00,weatherlink.com 1.10,2013-02-24 05:39:00,
2013-02-24 00:54:00,37.2,37.0,29.75,North,349,3.0,4.0,97,0.00,,,0.00,weatherlink.com 1.10,2013-02-24 05:54:00,
2013-02-24 01:09:00,37.2,37.0,29.76,North,355,0.0,3.0,97,0.00,,,0.00,weatherlink.com 1.10,2013-02-24 06:09:00,
2013-02-24 01:24:00,37.1,36.0,29.75,North,355,0.0,4.0,97,0.00,,,0.00,weatherlink.com 1.10,2013-02-24 06:24:00,
2013-02-24 01:39:00,37.0,36.0,29.75,NNW,337,0.0,4.0,97,0.00,,,0.00,weatherlink.com 1.10,2013-02-24 06:39:00,
2013-02-24 01:54:00,37.0,36.0,29.75,North,9,2.0,4.0,97,0.01,,,0.01,weatherlink.com 1.10,2013-02-24 06:54:00,
2013-02-24 02:09:00,37.0,36.0,29.74,North,355,1.0,4.0,97,0.01,,,0.01,weatherlink.com 1.10,2013-02-24 07:09:00,
2013-02-24 02:24:00,37.0,36.0,29.74,NNW,331,2.0,5.0,97,0.01,,,0.01,weatherlink.com 1.10,2013-02-24 07:24:00,
2013-02-24 02:39:00,37.1,36.0,29.74,North,355,0.0,4.0,97,0.01,,,0.01,weatherlink.com 1.10,2013-02-24 07:39:00,
2013-02-24 02:54:00,37.1,36.0,29.75,WNW,290,1.0,3.0,97,0.00,,,0.01,weatherlink.com 1.10,2013-02-24 07:54:00,
2013-02-24 03:09:00,37.2,37.0,29.75,WNW,292,5.0,5.0,97,0.00,,,0.01,weatherlink.com 1.10,2013-02-24 08:09:00,
2013-02-24 03:24:00,37.3,37.0,29.75,NW,307,0.0,2.0,97,0.00,,,0.01,weatherlink.com 1.10,2013-02-24 08:24:00,
2013-02-24 03:39:00,37.4,37.0,29.74,NW,325,0.0,3.0,97,0.00,,,0.01,weatherlink.com 1.10,2013-02-24 08:39:00,
2013-02-24 03:54:00,37.4,37.0,29.74,North,355,0.0,3.0,97,0.00,,,0.01,weatherlink.com 1.10,2013-02-24 08:54:00,
2013-02-24 04:09:00,37.0,36.0,29.73,North,355,1.0,3.0,96,0.00,,,0.01,weatherlink.com 1.10,2013-02-24 09:09:00,
2013-02-24 04:24:00,36.6,36.0,29.72,North,355,1.0,3.0,96,0.00,,,0.01,weatherlink.com 1.10,2013-02-24 09:24:00,
2013-02-24 04:39:00,36.4,35.0,29.70,North,355,0.0,2.0,96,0.00,,,0.01,weatherlink.com 1.10,2013-02-24 09:39:00,
2013-02-24 04:54:00,36.3,35.0,29.72,North,355,0.0,3.0,96,0.00,,,0.01,weatherlink.com 1.10,2013-02-24 09:54:00,
2013-02-24 05:09:00,36.2,35.0,29.71,North,355,1.0,3.0,96,0.00,,,0.01,weatherlink.com 1.10,2013-02-24 10:09:00,
2013-02-24 05:24:00,36.4,36.0,29.71,North,355,0.0,3.0,97,0.00,,,0.01,weatherlink.com 1.10,2013-02-24 10:24:00,
2013-02-24 05:39:00,36.4,36.0,29.71,North,355,0.0,3.0,97,0.01,,,0.02,weatherlink.com 1.10,2013-02-24 10:39:00,
2013-02-24 05:54:00,36.5,36.0,29.71,North,355,2.0,3.0,97,0.01,,,0.02,weatherlink.com 1.10,2013-02-24 10:54:00,
2013-02-24 06:09:00,36.6,36.0,29.72,West,281,1.0,3.0,97,0.01,,,0.02,weatherlink.com 1.10,2013-02-24 11:09:00,
2013-02-24 06:24:00,36.6,36.0,29.73,WNW,290,0.0,5.0,96,0.01,,,0.02,weatherlink.com 1.10,2013-02-24 11:24:00,
2013-02-24 06:39:00,36.4,35.0,29.73,NW,320,1.0,4.0,96,0.00,,,0.02,weatherlink.com 1.10,2013-02-24 11:39:00,
2013-02-24 06:54:00,36.1,35.0,29.73,NW,320,1.0,3.0,96,0.00,,,0.02,weatherlink.com 1.10,2013-02-24 11:54:00,
2013-02-24 07:09:00,36.1,35.0,29.73,WNW,282,0.0,2.0,96,0.00,,,0.02,weatherlink.com 1.10,2013-02-24 12:09:00,
2013-02-24 07:24:00,36.2,35.0,29.72,WNW,283,0.0,1.0,96,0.00,,,0.02,weatherlink.com 1.10,2013-02-24 12:24:00,
2013-02-24 07:39:00,36.6,36.0,29.72,WNW,283,0.0,2.0,96,0.00,,,0.02,weatherlink.com 1.10,2013-02-24 12:39:00,
2013-02-24 07:54:00,37.6,37.0,29.72,NNW,331,0.0,3.0,96,0.00,,,0.02,weatherlink.com 1.10,2013-02-24 12:54:00,
2013-02-24 08:09:00,37.9,37.0,29.73,NNW,327,1.0,3.0,95,0.00,,,0.02,weatherlink.com 1.10,2013-02-24 13:09:00,
2013-02-24 08:24:00,38.6,37.0,29.73,West,277,2.0,4.0,94,0.00,,,0.02,weatherlink.com 1.10,2013-02-24 13:24:00,
2013-02-24 08:39:00,39.8,38.0,29.74,NW,314,0.0,4.0,93,0.00,,,0.02,weatherlink.com 1.10,2013-02-24 13:39:00,
2013-02-24 08:54:00,40.2,38.0,29.73,West,279,1.0,5.0,90,0.00,,,0.02,weatherlink.com 1.10,2013-02-24 13:54:00,
2013-02-24 09:09:00,40.6,38.0,29.73,WNW,293,4.0,7.0,90,0.00,,,0.02,weatherlink.com 1.10,2013-02-24 14:09:00,
2013-02-24 09:24:00,41.6,39.0,29.73,North,350,3.0,7.0,89,0.00,,,0.02,weatherlink.com 1.10,2013-02-24 14:24:00,
2013-02-24 09:40:00,42.7,39.0,29.73,West,281,2.0,4.0,88,0.00,,,0.02,weatherlink.com 1.10,2013-02-24 14:40:00,
2013-02-24 09:55:00,43.2,39.0,29.72,North,350,2.0,6.0,86,0.00,,,0.02,weatherlink.com 1.10,2013-02-24 14:55:00,
2013-02-24 10:10:00,44.3,40.0,29.73,WNW,297,1.0,10.0,84,0.00,,,0.02,weatherlink.com 1.10,2013-02-24 15:10:00,
2013-02-24 10:25:00,45.5,39.0,29.73,WNW,297,7.0,16.0,79,0.00,,,0.02,weatherlink.com 1.10,2013-02-24 15:25:00,
2013-02-24 10:40:00,46.0,40.0,29.73,WNW,288,3.0,9.0,78,0.00,,,0.02,weatherlink.com 1.10,2013-02-24 15:40:00,
2013-02-24 10:55:00,46.5,39.0,29.73,NNW,327,4.0,7.0,75,0.00,,,0.02,weatherlink.com 1.10,2013-02-24 15:55:00,
2013-02-24 11:10:00,46.9,39.0,29.73,WNW,283,3.0,15.0,73,0.00,,,0.02,weatherlink.com 1.10,2013-02-24 16:10:00,
2013-02-24 11:25:00,47.6,38.0,29.73,WNW,293,2.0,10.0,70,0.00,,,0.02,weatherlink.com 1.10,2013-02-24 16:25:00,
2013-02-24 11:40:00,48.2,38.0,29.73,SW,232,4.0,9.0,68,0.00,,,0.02,weatherlink.com 1.10,2013-02-24 16:40:00,
2013-02-24 11:55:00,48.5,36.0,29.72,NW,316,5.0,15.0,63,0.00,,,0.02,weatherlink.com 1.10,2013-02-24 16:55:00,
2013-02-24 12:10:00,48.2,36.0,29.71,West,263,3.0,11.0,64,0.00,,,0.02,weatherlink.com 1.10,2013-02-24 17:10:00,
2013-02-24 12:25:00,47.6,35.0,29.72,West,270,2.0,12.0,63,0.00,,,0.02,weatherlink.com 1.10,2013-02-24 17:25:00,
2013-02-24 12:40:00,47.8,35.0,29.71,WNW,282,2.0,9.0,62,0.00,,,0.02,weatherlink.com 1.10,2013-02-24 17:40:00,
2013-02-24 12:55:00,48.8,35.0,29.71,SW,236,2.0,14.0,59,0.00,,,0.02,weatherlink.com 1.10,2013-02-24 17:55:00,
2013-02-24 13:10:00,47.6,34.0,29.71,WNW,303,5.0,7.0,60,0.00,,,0.02,weatherlink.com 1.10,2013-02-24 18:10:00,
2013-02-24 13:25:00,46.6,34.0,29.71,WSW,258,3.0,9.0,61,0.00,,,0.02,weatherlink.com 1.10,2013-02-24 18:25:00,
2013-02-24 13:40:00,46.2,33.0,29.71,NW,324,4.0,9.0,61,0.00,,,0.02,weatherlink.com 1.10,2013-02-24 18:40:00,
2013-02-24 13:55:00,46.1,33.0,29.71,NW,306,1.0,10.0,60,0.00,,,0.02,weatherlink.com 1.10,2013-02-24 18:55:00,
2013-02-24 14:10:00,45.7,31.0,29.71,NW,317,3.0,14.0,58,0.00,,,0.02,weatherlink.com 1.10,2013-02-24 19:10:00,
2013-02-24 14:25:00,45.7,31.0,29.72,West,277,6.0,13.0,57,0.00,,,0.02,weatherlink.com 1.10,2013-02-24 19:25:00,
2013-02-24 14:40:00,46.2,31.0,29.71,WNW,298,8.0,10.0,56,0.00,,,0.02,weatherlink.com 1.10,2013-02-24 19:40:00,
2013-02-24 14:55:00,45.6,31.0,29.71,West,263,4.0,9.0,58,0.00,,,0.02,weatherlink.com 1.10,2013-02-24 19:55:00,
2013-02-24 15:10:00,45.2,31.0,29.72,WSW,244,0.0,11.0,59,0.00,,,0.02,weatherlink.com 1.10,2013-02-24 20:10:00,
2013-02-24 15:25:00,44.2,31.0,29.73,WNW,283,3.0,14.0,61,0.00,,,0.02,weatherlink.com 1.10,2013-02-24 20:25:00,
2013-02-24 15:40:00,43.5,32.0,29.74,SW,236,3.0,13.0,63,0.00,,,0.02,weatherlink.com 1.10,2013-02-24 20:40:00,
2013-02-24 15:55:00,43.0,32.0,29.75,WSW,254,6.0,12.0,65,0.00,,,0.02,weatherlink.com 1.10,2013-02-24 20:55:00,
2013-02-24 16:10:00,42.3,32.0,29.75,West,268,7.0,10.0,67,0.00,,,0.02,weatherlink.com 1.10,2013-02-24 21:10:00,
2013-02-24 16:25:00,41.5,32.0,29.77,NNW,339,4.0,13.0,69,0.00,,,0.02,weatherlink.com 1.10,2013-02-24 21:25:00,
2013-02-24 16:40:00,39.9,31.0,29.78,WSW,246,5.0,18.0,70,0.00,,,0.02,weatherlink.com 1.10,2013-02-24 21:40:00,
2013-02-24 16:55:00,38.8,30.0,29.80,West,267,2.0,12.0,71,0.00,,,0.02,weatherlink.com 1.10,2013-02-24 21:55:00,
2013-02-24 17:10:00,38.3,28.0,29.80,WSW,258,7.0,12.0,67,0.00,,,0.02,weatherlink.com 1.10,2013-02-24 22:10:00,
2013-02-24 17:25:00,38.1,27.0,29.81,WSW,246,3.0,13.0,65,0.00,,,0.02,weatherlink.com 1.10,2013-02-24 22:25:00,
2013-02-24 17:40:00,37.9,27.0,29.81,West,270,3.0,10.0,65,0.00,,,0.02,weatherlink.com 1.10,2013-02-24 22:40:00,
2013-02-24 17:55:00,37.5,27.0,29.82,NNE,28,8.0,10.0,65,0.00,,,0.02,weatherlink.com 1.10,2013-02-24 22:55:00,
2013-02-24 18:10:00,37.2,26.0,29.83,NNW,329,2.0,10.0,63,0.00,,,0.02,weatherlink.com 1.10,2013-02-24 23:10:00,
2013-02-24 18:26:00,36.8,26.0,29.84,NW,307,4.0,6.0,64,0.00,,,0.02,weatherlink.com 1.10,2013-02-24 23:26:00,
2013-02-24 18:41:00,36.6,25.0,29.85,West,269,1.0,7.0,63,0.00,,,0.02,weatherlink.com 1.10,2013-02-24 23:41:00,
2013-02-24 18:56:00,36.2,25.0,29.86,WNW,291,6.0,8.0,64,0.00,,,0.02,weatherlink.com 1.10,2013-02-24 23:56:00,
2013-02-24 19:11:00,36.2,25.0,29.86,WSW,242,2.0,10.0,63,0.00,,,0.02,weatherlink.com 1.10,2013-02-25 00:11:00,
2013-02-24 19:26:00,36.2,25.0,29.87,WNW,300,2.0,16.0,63,0.00,,,0.02,weatherlink.com 1.10,2013-02-25 00:26:00,
2013-02-24 19:41:00,36.1,24.0,29.88,NW,325,4.0,12.0,63,0.00,,,0.02,weatherlink.com 1.10,2013-02-25 00:41:00,
2013-02-24 19:56:00,36.0,25.0,29.89,North,355,4.0,8.0,64,0.00,,,0.02,weatherlink.com 1.10,2013-02-25 00:56:00,
2013-02-24 20:11:00,35.7,25.0,29.90,WNW,292,4.0,9.0,64,0.00,,,0.02,weatherlink.com 1.10,2013-02-25 01:11:00,
2013-02-24 20:26:00,35.4,25.0,29.90,WNW,291,2.0,10.0,65,0.00,,,0.02,weatherlink.com 1.10,2013-02-25 01:26:00,
2013-02-24 20:41:00,35.0,25.0,29.91,West,281,1.0,6.0,66,0.00,,,0.02,weatherlink.com 1.10,2013-02-25 01:41:00,
2013-02-24 20:56:00,34.5,25.0,29.91,NW,304,1.0,8.0,67,0.00,,,0.02,weatherlink.com 1.10,2013-02-25 01:56:00,
2013-02-24 21:11:00,34.1,24.0,29.91,West,274,2.0,10.0,67,0.00,,,0.02,weatherlink.com 1.10,2013-02-25 02:11:00,
2013-02-24 21:26:00,33.9,24.0,29.92,West,275,3.0,5.0,67,0.00,,,0.02,weatherlink.com 1.10,2013-02-25 02:26:00,
2013-02-24 21:41:00,33.8,24.0,29.92,WNW,293,2.0,7.0,67,0.00,,,0.02,weatherlink.com 1.10,2013-02-25 02:41:00,
2013-02-24 21:56:00,33.8,23.0,29.93,NNW,345,3.0,12.0,66,0.00,,,0.02,weatherlink.com 1.10,2013-02-25 02:56:00,
2013-02-24 22:11:00,33.9,24.0,29.93,WNW,298,3.0,14.0,66,0.00,,,0.02,weatherlink.com 1.10,2013-02-25 03:11:00,
2013-02-24 22:26:00,33.6,24.0,29.93,WNW,293,1.0,5.0,67,0.00,,,0.02,weatherlink.com 1.10,2013-02-25 03:26:00,
2013-02-24 22:41:00,33.4,23.0,29.93,NW,307,1.0,8.0,66,0.00,,,0.02,weatherlink.com 1.10,2013-02-25 03:41:00,
2013-02-24 22:56:00,33.4,23.0,29.93,NNW,333,7.0,9.0,66,0.00,,,0.02,weatherlink.com 1.10,2013-02-25 03:56:00,
2013-02-24 23:11:00,33.4,23.0,29.93,NNW,329,2.0,10.0,66,0.00,,,0.02,weatherlink.com 1.10,2013-02-25 04:11:00,
2013-02-24 23:26:00,33.1,23.0,29.92,WNW,296,0.0,8.0,67,0.00,,,0.02,weatherlink.com 1.10,2013-02-25 04:26:00,
2013-02-24 23:41:00,33.0,23.0,29.93,West,265,0.0,11.0,67,0.00,,,0.02,weatherlink.com 1.10,2013-02-25 04:41:00,
2013-02-24 23:56:00,32.9,23.0,29.94,West,270,0.0,6.0,67,0.00,,,0.02,weatherlink.com 1.10,2013-02-25 04:56:00,